FLOCK 4Y 15

导读

FLOCK 4Y 15是美国Planet公司Flock 4y批次的一颗SuperDove商业遥感卫星,于2023年1月3日发射,属于Planet的Dove遥感卫星星座组网补充卫星。该卫星配备八个光谱波段,具备对地观测能力,可提供高质量地球影像数据,服务农业、林业等多行业,辅助资源监测、地理信息获取与行业决策,提升星座整体观测容量与服务响应效率。

基本信息
目录编号:
55068
目录名称:
FLOCK 4Y 15
国际标识:
2023-001BM
轨道中心:
EARTH
卫星名称:
FLOCK 4Y 15
卫星全名:
--
卫星状态:
已陨落 最后检测时间 2025-09-19
发射日期:
2023-01-03 UTC
国别 :
美国 (US)
星等 :
--
轨道信息
数据来源 国际轨道数据
星历时间: 2025-09-19T09:07:07+0800
轨道信息已过期310天
半长轴: 6552.707km
偏心率: 0.0016344
轨道倾角: 97.348°
近地点辐角 223.705°
升交点赤经 340.187°
平近点角 136.295°
近地点: 163.862km
远地点: 185.282km
周期: 87.981分钟
每日圈数: 16.367099
详细信息
使用方式:
暂无